CW9763 Weather Reports


time (UTC)temp
F
wind
direction
speed
knots
gust
knots
rain 1hr
in
rain 24hr
in
rain mn
in
humidity
%
barometer
mb
20210920060314 70 29 2.6 3.5 0.00 0.00 0.00 34 1013.6
20210920055322 71 279 0.9 2.6 0.00 0.00 0.00 34 1013.3
20210920054336 71 279 1.7 4.3 0.00 0.00 0.00 34 1013.3
20210920053320 72 279 3.5 4.3 0.00 0.00 0.00 34 1013.2
20210920052330 72 251 2.6 3.5 0.00 0.00 0.00 33 1013.2
20210920051315 72 250 2.6 4.3 0.00 0.00 0.00 32 1013.1
20210920050328 73 260 1.7 3.5 0.00 0.00 0.00 31 1012.9
20210920045313 74 321 1.7 2.6 0.00 0.00 0.00 31 1012.8
20210920044317 75 321 0.9 1.7 0.00 0.00 0.00 30 1012.8
20210920043326 76 321 1.7 7.8 0.00 0.00 0.00 30 1012.7
20210920042336 76 241 3.5 6.1 0.00 0.00 0.00 30 1012.6
20210920041321 77 235 3.5 6.1 0.00 0.00 0.00 30 1012.3
20210920040337 77 243 3.5 7.0 0.00 0.00 0.00 30 1012.2
20210920035321 77 238 3.5 7.0 0.00 0.00 0.00 30 1012.0
20210920034330 77 238 3.5 9.6 0.00 0.00 0.00 30 1011.8
20210920033320 76 223 4.3 7.8 0.00 0.00 0.00 30 1011.5
20210920032324 76 231 3.5 7.0 0.00 0.00 0.00 30 1011.4
20210920031314 77 194 5.2 6.1 0.00 0.00 0.00 29 1011.3
20210920030320 77 198 4.3 5.2 0.00 0.00 0.00 28 1011.0
20210920025328 78 209 3.5 6.1 0.00 0.00 0.00 27 1010.9
20210920024315 79 178 4.3 5.2 0.00 0.00 0.00 27 1010.7
20210920023316 80 172 4.3 6.1 0.00 0.00 0.00 26 1010.6
20210920022323 80 263 2.6 6.1 0.00 0.00 0.00 25 1010.5
20210920021325 81 169 2.6 5.2 0.00 0.00 0.00 26 1010.4
20210920020330 82 194 2.6 6.1 0.00 0.00 0.00 24 1010.3
20210920015318 83 206 0.9 6.1 0.00 0.00 0.00 23 1010.1
20210920014324 84 203 2.6 6.1 0.00 0.00 0.00 23 1009.9
20210920013322 84 207 4.3 6.1 0.00 0.00 0.00 23 1009.7
20210920012330 85 232 2.6 5.2 0.00 0.00 0.00 21 1009.7
20210920011317 86 231 2.6 7.0 0.00 0.00 0.00 21 1009.6
20210920010322 87 235 4.3 7.8 0.00 0.00 0.00 20 1009.6
20210920005325 88 257 6.1 10.4 0.00 0.00 0.00 19 1009.4
20210920004332 88 263 4.3 9.6 0.00 0.00 0.00 19 1009.4
20210920003319 89 263 6.1 9.6 0.00 0.00 0.00 18 1009.4
20210920002326 89 263 4.3 11.3 0.00 0.00 0.00 18 1009.4
20210920001314 89 263 2.6 7.8 0.00 0.00 0.00 18 1009.4
20210920000317 90 263 4.3 9.6 0.00 0.00 0.00 18 1009.3
20210919235324 90 303 6.1 9.6 0.00 0.00 0.00 17 1009.3
20210919234335 90 338 7.0 9.6 0.00 0.00 0.00 17 1009.3
20210919233316 91 327 3.5 8.7 0.00 0.00 0.00 16 1009.4
20210919232323 91 299 4.3 9.6 0.00 0.00 0.00 16 1009.5
20210919230332 92 315 4.3 7.8 0.00 0.00 0.00 15 1009.5
20210919225339 92 327 7.0 9.6 0.00 0.00 0.00 15 1009.6
20210919224347 92 360 4.3 7.8 0.00 0.00 0.00 15 1009.7
20210919223338 93 316 4.3 9.6 0.00 0.00 0.00 15 1009.8
20210919222343 93 264 6.1 7.8 0.00 0.00 0.00 14 1009.7
20210919221325 93 284 5.2 8.7 0.00 0.00 0.00 14 1009.9
20210919220344 94 263 1.7 4.3 0.00 0.00 0.00 14 1010.0
20210919215340 93 229 2.6 7.8 0.00 0.00 0.00 14 1010.2
20210919214338 93 223 6.1 9.6 0.00 0.00 0.00 14 1010.2
20210919213340 92 293 1.7 4.3 0.00 0.00 0.00 15 1010.4
20210919212330 92 287 0.9 3.5 0.00 0.00 0.00 15 1010.5
20210919211335 91 348 0.9 7.8 0.00 0.00 0.00 15 1010.7
20210919210339 92 320 3.5 8.7 0.00 0.00 0.00 15 1010.9
20210919205329 92 296 7.0 11.3 0.00 0.00 0.00 15 1011.1
20210919204331 92 317 4.3 7.8 0.00 0.00 0.00 15 1011.2
20210919203329 92 165 2.6 9.6 0.00 0.00 0.00 15 1011.4
20210919202336 91 190 9.6 13.0 0.00 0.00 0.00 15 1011.5
20210919201329 90 233 7.0 14.8 0.00 0.00 0.00 16 1011.7
20210919200340 90 224 4.3 10.4 0.00 0.00 0.00 16 1011.8
20210919195325 89 150 3.5 7.0 0.00 0.00 0.00 17 1012.0
20210919194348 88 43 2.6 3.5 0.00 0.00 0.00 17 1012.1
20210919193351 86 317 1.7 5.2 0.00 0.00 0.00 19 1012.3
20210919192325 86 327 1.7 7.8 0.00 0.00 0.00 19 1012.3
20210919191325 86 74 1.7 4.3 0.00 0.00 0.00 19 1012.6
20210919190342 85 322 1.7 5.2 0.00 0.00 0.00 20 1012.7
20210919185333 83 10 2.6 7.0 0.00 0.00 0.00 20 1012.8
20210919184336 83 360 4.3 8.7 0.00 0.00 0.00 20 1012.9
20210919183338 84 302 4.3 7.0 0.00 0.00 0.00 21 1013.1
20210919182332 83 251 4.3 7.0 0.00 0.00 0.00 22 1013.2
20210919181337 81 255 3.5 7.0 0.00 0.00 0.00 23 1013.3
20210919180340 80 261 3.5 7.8 0.00 0.00 0.00 23 1013.5
20210919175343 79 288 4.3 7.0 0.00 0.00 0.00 24 1013.5
20210919174334 78 322 4.3 7.0 0.00 0.00 0.00 25 1013.5
20210919173333 77 360 2.6 5.2 0.00 0.00 0.00 25 1013.5
20210919172337 77 13 6.1 9.6 0.00 0.00 0.00 25 1013.6
20210919171332 77 16 4.3 11.3 0.00 0.00 0.00 25 1013.4
20210919170333 76 267 3.5 7.0 0.00 0.00 0.00 26 1013.5
20210919165332 77 19 7.0 12.2 0.00 0.00 0.00 24 1013.5
20210919164328 76 279 7.8 13.0 0.00 0.00 0.00 28 1013.3
20210919163328 74 236 6.1 8.7 0.00 0.00 0.00 27 1013.3
20210919162334 73 298 4.3 7.8 0.00 0.00 0.00 27 1013.3
20210919161338 73 303 6.1 8.7 0.00 0.00 0.00 27 1013.3
20210919160325 73 302 3.5 8.7 0.00 0.00 0.00 27 1013.2
20210919155329 74 336 4.3 7.8 0.00 0.00 0.00 26 1013.2
20210919154330 73 185 1.7 2.6 0.00 0.00 0.00 28 1013.1
20210919153327 72 185 0.9 1.7 0.00 0.00 0.00 29 1013.2
20210919152331 70 185 1.7 2.6 0.00 0.00 0.00 29 1013.0
20210919151332 69 186 0.0 2.6 0.00 0.00 0.00 31 1013.0
20210919150328 68 186 3.5 4.3 0.00 0.00 0.00 32 1013.2
20210919145327 66 216 3.5 6.1 0.00 0.00 0.00 33 1013.4
20210919144331 65 149 0.9 2.6 0.00 0.00 0.00 33 1013.4
20210919143336 65 148 0.9 4.3 0.00 0.00 0.00 32 1013.5
20210919142329 65 144 3.5 6.1 0.00 0.00 0.00 31 1013.5
20210919141336 66 229 1.7 4.3 0.00 0.00 0.00 31 1013.3
20210919140334 67 231 2.6 3.5 0.00 0.00 0.00 30 1013.4
20210919135331 67 355 1.7 7.0 0.00 0.00 0.00 29 1013.3
20210919134335 67 224 1.7 8.7 0.00 0.00 0.00 31 1013.2
20210919133340 67 182 3.5 6.1 0.00 0.00 0.00 30 1013.2
20210919132345 66 267 5.2 8.7 0.00 0.00 0.00 34 1013.1
20210919131337 64 216 4.3 7.8 0.00 0.00 0.00 31 1013.1
20210919130339 63 266 5.2 7.8 0.00 0.00 0.00 31 1013.2
20210919125338 64 265 2.6 5.2 0.00 0.00 0.00 30 1013.2
20210919124332 65 229 4.3 7.0 0.00 0.00 0.00 28 1013.1
20210919123335 67 169 0.9 2.6 0.00 0.00 0.00 30 1013.2
20210919122335 68 168 3.5 4.3 0.00 0.00 0.00 30 1013.1
20210919121339 68 169 0.9 2.6 0.00 0.00 0.00 29 1013.1
20210919120329 69 169 2.6 6.1 0.00 0.00 0.00 28 1013.0
20210919115331 68 292 5.2 8.7 0.00 0.00 0.00 29 1013.1
20210919114336 67 157 0.0 2.6 0.00 0.00 0.00 31 1013.3
20210919113327 67 157 2.6 7.8 0.00 0.00 0.00 30 1013.3
20210919112330 66 144 3.5 7.0 0.00 0.00 0.00 26 1013.3
20210919111333 66 94 4.3 5.2 0.00 0.00 0.00 26 1013.4
20210919110325 67 146 1.7 3.5 0.00 0.00 0.00 25 1013.5
20210919105327 68 146 2.6 6.1 0.00 0.00 0.00 24 1013.7
20210919104333 69 219 0.9 5.2 0.00 0.00 0.00 24 1013.7
20210919103327 70 219 4.3 5.2 0.00 0.00 0.00 22 1013.6
20210919102326 71 290 2.6 6.1 0.00 0.00 0.00 21 1013.5
20210919101330 72 297 5.2 10.4 0.00 0.00 0.00 19 1013.6
20210919100348 74 269 9.6 16.5 0.00 0.00 0.00 19 1013.6
20210919095351 73 284 7.8 10.4 0.00 0.00 0.00 21 1013.5
20210919094326 73 207 7.0 11.3 0.00 0.00 0.00 25 1013.5
20210919093342 72 257 6.1 10.4 0.00 0.00 0.00 22 1013.9
20210919092349 72 240 4.3 8.7 0.00 0.00 0.00 23 1013.8
20210919091341 71 244 6.1 8.7 0.00 0.00 0.00 26 1014.0
20210919090326 70 242 6.1 14.8 0.00 0.00 0.00 26 1014.1
20210919085346 70 228 2.6 3.5 0.00 0.00 0.00 21 1014.5
20210919084353 71 222 1.7 5.2 0.00 0.00 0.00 21 1014.3
20210919083327 72 313 1.7 7.0 0.00 0.00 0.00 22 1014.6
20210919082328 73 237 6.1 13.0 0.00 0.00 0.00 24 1014.3
20210919081349 73 222 5.2 9.6 0.00 0.00 0.00 23 1014.6
20210919080338 73 231 4.3 7.0 0.00 0.00 0.00 21 1014.6
20210919075324 74 196 3.5 10.4 0.00 0.00 0.00 23 1014.6
20210919074350 74 205 7.0 10.4 0.00 0.00 0.00 22 1014.6
20210919073352 74 218 6.1 7.8 0.00 0.00 0.00 21 1014.7
20210919072324 74 198 3.5 11.3 0.00 0.00 0.00 22 1014.7
20210919071338 74 209 8.7 12.2 0.00 0.00 0.00 22 1014.8
20210919070337 74 192 7.8 13.0 0.00 0.00 0.00 22 1014.8
20210919065336 74 234 6.1 8.7 0.00 0.00 0.00 19 1014.8
20210919064333 75 207 5.2 7.0 0.00 0.00 0.00 19 1014.7
20210919063340 75 211 7.8 14.8 0.00 0.00 0.00 20 1014.7
20210919062340 74 186 10.4 13.9 0.00 0.00 0.00 20 1014.8
20210919061347 75 219 6.1 7.0 0.00 0.00 0.00 20 1014.9